2023/09/07 00:00:00, 0.1,20.4
2023/09/07 00:10:00, 0.1,20.4
2023/09/07 00:20:00, 0.1,20.2
2023/09/07 00:30:00, 0.1,20.3
2023/09/07 00:40:00, 0.1,20.4
2023/09/07 00:50:00, 0.1,20.2
2023/09/07 01:00:00, 0.1,20.2
2023/09/07 01:10:00, 0.1,20.0
2023/09/07 01:20:00, 0.1,20.2
2023/09/07 01:30:00, 0.1,20.1
2023/09/07 01:40:00, 0.1,20.1
2023/09/07 01:50:00, 0.1,19.9
2023/09/07 02:00:00, 0.1,19.9
2023/09/07 02:10:00, 0.1,19.9
2023/09/07 02:20:00, 0.1,19.7
2023/09/07 02:30:00, 0.1,19.6
2023/09/07 02:40:00, 0.1,19.6
2023/09/07 02:50:00, 0.1,19.8
2023/09/07 03:00:00, 0.1,19.8
2023/09/07 03:10:00, 0.1,19.4
2023/09/07 03:20:00, 0.1,19.2
2023/09/07 03:30:00, 0.0,19.4
2023/09/07 03:40:00, 0.2,19.3
2023/09/07 03:50:00, 0.2,19.1
2023/09/07 04:00:00, 0.2,19.2
2023/09/07 04:10:00, 0.2,19.0
2023/09/07 04:20:00, 2.9,19.1
2023/09/07 04:30:00, 9.9,18.8
2023/09/07 04:40:00,11.3,18.6
2023/09/07 04:50:00,11.5,18.7
2023/09/07 05:00:00,11.2,18.6
2023/09/07 05:10:00,11.1,18.4
2023/09/07 05:20:00,10.9,18.4
2023/09/07 05:30:00,10.5,18.4
2023/09/07 05:40:00,10.2,18.4
2023/09/07 05:50:00,10.1,18.3
2023/09/07 06:00:00, 9.8,18.3
2023/09/07 06:10:00, 9.5,18.3
2023/09/07 06:20:00, 9.0,18.4
2023/09/07 06:30:00, 7.7,18.4
2023/09/07 06:40:00, 1.4,18.7
2023/09/07 06:50:00, 0.3,18.7
2023/09/07 07:00:00, 0.3,18.7
2023/09/07 07:10:00, 1.1,18.9
2023/09/07 07:20:00, 1.7,19.2
2023/09/07 07:30:00, 4.5,20.1
2023/09/07 07:40:00, 4.8,20.6
2023/09/07 07:50:00, 4.3,21.2
2023/09/07 08:00:00, 0.0,21.8
2023/09/07 08:10:00, 0.0,22.0
2023/09/07 08:20:00, 0.0,22.7
2023/09/07 08:30:00, 0.0,22.6
2023/09/07 08:40:00, 0.7,23.1
2023/09/07 08:50:00, 0.7,23.7
2023/09/07 09:00:00, 0.0,24.4
2023/09/07 09:10:00, 0.0,25.4
2023/09/07 09:20:00, 0.0,26.1
2023/09/07 09:30:00, 0.0,25.4
2023/09/07 09:40:00, 0.0,24.9
2023/09/07 09:50:00, 0.0,25.4
2023/09/07 10:00:00, 0.0,26.2
2023/09/07 10:10:00, 0.0,25.1
2023/09/07 10:20:00, 0.0,25.6
2023/09/07 10:30:00, 0.0,25.6
2023/09/07 10:40:00, 0.0,24.8
2023/09/07 10:50:00, 0.0,24.0
2023/09/07 11:00:00, 0.0,22.9
2023/09/07 11:10:00, 0.0,22.9
2023/09/07 11:20:00, 0.0,24.8
2023/09/07 11:30:00, 0.0,24.9
2023/09/07 11:40:00, 0.0,25.9
2023/09/07 11:50:00, 0.0,26.1
2023/09/07 12:00:00, 0.7,26.5
2023/09/07 12:10:00, 3.2,26.2
2023/09/07 12:20:00, 0.3,28.7
2023/09/07 12:30:00, 0.0,29.5
2023/09/07 12:40:00, 0.1,30.3
2023/09/07 12:50:00, 0.8,29.4
2023/09/07 13:00:00, 2.8,29.7
2023/09/07 13:10:00, 4.1,29.7
2023/09/07 13:20:00, 3.9,29.6
2023/09/07 13:30:00, 3.7,30.0
2023/09/07 13:40:00, 2.7,29.5
2023/09/07 13:50:00, 3.1,29.5
2023/09/07 14:00:00, 2.8,29.3
2023/09/07 14:10:00, 3.4,29.5
2023/09/07 14:20:00,---,29.4
2023/09/07 14:30:00, 5.3,29.5
2023/09/07 14:40:00,---,29.8
2023/09/07 14:50:00, 0.0,28.7
2023/09/07 15:00:00, 4.5,28.2
2023/09/07 15:10:00, 0.3,27.9
2023/09/07 15:20:00, 0.1,27.0
2023/09/07 15:30:00, 0.0,27.8
2023/09/07 15:40:00, 0.0,27.2
2023/09/07 15:50:00, 0.0,27.4
2023/09/07 16:00:00, 0.0,27.2
2023/09/07 16:10:00, 0.0,26.1
2023/09/07 16:20:00, 0.2,25.4
2023/09/07 16:30:00, 0.1,25.6
2023/09/07 16:40:00, 0.3,25.2
2023/09/07 16:50:00, 1.7,25.2
2023/09/07 17:00:00, 5.2,25.0
2023/09/07 17:10:00, 5.4,24.6
2023/09/07 17:20:00, 5.6,24.0
2023/09/07 17:30:00, 5.8,23.8
2023/09/07 17:40:00, 5.8,23.6
2023/09/07 17:50:00, 5.6,23.3
2023/09/07 18:00:00, 5.5,22.8
2023/09/07 18:10:00, 5.4,22.4
2023/09/07 18:20:00, 5.4,22.5
2023/09/07 18:30:00, 5.4,22.1
2023/09/07 18:40:00, 5.6,21.8
2023/09/07 18:50:00, 5.6,21.5
2023/09/07 19:00:00, 5.6,21.7
2023/09/07 19:10:00, 5.7,21.1
2023/09/07 19:20:00, 5.8,21.1
2023/09/07 19:30:00, 6.0,20.9
2023/09/07 19:40:00, 5.9,20.7
2023/09/07 19:50:00, 6.0,20.8
2023/09/07 20:00:00, 6.1,20.6
2023/09/07 20:10:00, 6.2,20.6
2023/09/07 20:20:00, 6.1,20.9
2023/09/07 20:30:00, 6.1,20.8
2023/09/07 20:40:00, 6.0,20.5
2023/09/07 20:50:00, 5.7,20.8
2023/09/07 21:00:00, 5.5,20.5
2023/09/07 21:10:00, 5.2,20.3
2023/09/07 21:20:00, 5.1,20.2
2023/09/07 21:30:00, 5.1,20.3
2023/09/07 21:40:00, 5.0,20.2
2023/09/07 21:50:00, 4.8,20.2
2023/09/07 22:00:00, 4.9,20.4
2023/09/07 22:10:00, 5.1,20.5
2023/09/07 22:20:00, 4.8,20.4
2023/09/07 22:30:00, 5.1,20.2
2023/09/07 22:40:00, 4.8,20.7
2023/09/07 22:50:00, 4.1,20.5
2023/09/07 23:00:00, 4.3,20.4
2023/09/07 23:10:00, 4.9,20.4
2023/09/07 23:20:00, 3.2,20.3
2023/09/07 23:30:00, 3.0,20.1
2023/09/07 23:40:00, 3.5,20.6
2023/09/07 23:50:00, 4.1,20.3
